Regional Weather Roundup
Issued by NWS Newport/Morehead, NC

Current Version | Previous Version | Graphics & Text | Print | Product List | Glossary Off
Versions: 1 2 3 4 5 6 7 8 9 10 11 12 13 14 15 16 17 18 19 20 21 22 23 24 25 26 27 28 29 30 31 32 33 34 35 36 37 38 39 40 41 42 43 44 45 46 47 48 49 50

000
ASUS42 KMHX 030312
RWRMHX
WEATHER ROUNDUP FOR EASTERN NORTH CAROLINA
NATIONAL WEATHER SERVICE NEWPORT/MOREHEAD CITY NC
1000 PM EST MON MAR 02 2015

NOTE: "FAIR" INDICATES FEW OR NO CLOUDS BELOW 12,000 FEET
WITH NO SIGNIFICANT WEATHER AND/OR OBSTRUCTIONS TO VISIBILITY

NCZ015>017-031-032-045>047-102-103-030400-
NORTH COAST

CITY           SKY/WX    TMP DP  RH WIND       PRES   REMARKS
EDENTON        MOCLDY    38  29  71 E3        30.38R
ELIZABETH CITY MOCLDY    38  24  57 NE10      30.39R
KITTY HAWK     MOCLDY    37  29  70 NE7       30.36R
MANTEO         MOCLDY    39  25  56 NE15G21   30.37R

$$

NCZ045>047-081-094-103-104-030400-
CENTRAL COAST

CITY           SKY/WX    TMP DP  RH WIND       PRES   REMARKS
FRISCO         MOCLDY    41  28  60 NE12G17   30.35S
SWANQUARTER      N/A     39 N/A N/A NE7       30.33S

$$

NCZ095-097-098-100-101-030400-
SOUTHERN COAST

CITY           SKY/WX    TMP DP  RH WIND       PRES   REMARKS
BEAUFORT       CLEAR     40  30  67 NE8       30.37R
CEDAR ISLAND     N/A     41 N/A N/A NE6G12    30.41R
JACKSONVILLE   NOT AVBL
PINEY ISLAND     N/A    N/A N/A N/A MISG      30.37R
WILMINGTON     CLOUDY    47  39  74 E9        30.35R


$$

NCZ011>013-027>030-043-044-078>080-089-090>093-098-030400-
COASTAL PLAIN

CITY           SKY/WX    TMP DP  RH WIND       PRES   REMARKS
AHOSKIE        PTCLDY    39  28  64 CALM      30.40R
CLINTON        PTCLDY    46  44  90 E3        30.35R
ELIZABETHTOWN  PTCLDY    48  45  90 SE7       30.33R
GOLDSBORO      PTCLDY    46  45  99 SE13      30.34R
GREENVILLE     CLEAR     41  34  75 E5        30.38R
HAVELOCK       CLEAR     41  29  62 E9        30.38R
KENANSVILLE    CLEAR     43  35  72 E7        30.37R
KINSTON        CLEAR     43  36  75 E5        30.38R
NEW BERN       CLEAR     40  33  76 E6        30.39R
RICHLANDS      CLEAR     41  34  75 E7        30.37R
ROCKY MOUNT    PTCLDY    45  39  79 E3        30.36R
WASHINGTON     CLEAR     39  31  72 E5        30.38R
WHITEVILLE     PTCLDY    51  48  90 E8        30.32R

$$

AMZ130-135-150-152-154-156-158-170-250-252-270-ANZ085-086-088-633-658-670-030400-
MARINE OBSERVATIONS

STATION/POSITION TIME  TEMP    WIND        PRES    WAVE   SWELL
                       AIR SEA DIR/SP/G            HT/PER HT/PER
                 (UTC) (F)     (DEG/KT/KT) (MB)    (FT/S) (FT/S)
CHESAPEAKE LIGHT 0200   38      20/ 11/ 12 1029.1
64 E VA BEACH    0250   45 58   10/ 19/ 25 1027.5    5/ 5
DUCK             0200   38 35   30/ 14/ 16 1027.3
2 E DUCK         0211      34                N/A     3/ 5
10 NE DUCK       0222      37                N/A     3/ 4
OREGON INLET     0200   39 44   20/ 14/ 17 1027.7
HATTERAS CG      0200   41 44   40/ 10/ 13 1028.0
CAPE LOOKOUT     0300   46      40/ 20/ 22 1027.9
BEAUFORT LAB     0200   42 44   50/ 10/ 13 1026.6
27 SE WRIGHTSVLE NOT AVBL
5 SE WRIGHTSVLE  NOT AVBL
225 S CAPE HAT   0250   68 73   10/ 16/ 19 1024.1    5/ 9   3/ 9
41 SE CHARLESTON 0250   62 67   60/ 12/ 14 1024.9    3/ 9   3/ 9

$$



USA.gov is the U.S. government's official web portal to all federal, state and local government web resources and services.